This demonstration page uses our WeatherBlox Daily Observations layout. Learn more.

Left ArrowRight Arrow

31.84235, -102.49876

Hourly Observations for May 9, 2015

Temp ( °F °C ) Dew Point ( °F °C ) Humidity (%) Winds ( mph kmh ) Pressure ( in mb ) Visibility ( mi km ) Precip ( " mm )
12:53 am 00:53 Cloudy 74 23.3 65 18.3 74 74 SE 15 24 29.65 1004 8 13 0.00 0.00
1:29 am 01:29 Mostly Cloudy 74 23.3 65 18.3 74 74 SE 16 26 29.65 1004 7 11 0.00 0.00
1:53 am 01:53 Mostly Cloudy with Haze 73 22.8 65 18.3 76 76 SE 10 17 29.62 1003 6 10 0.00 0.00
2:53 am 02:53 Cloudy with Haze 72 22.2 66 18.9 82 82 ESE 8 13 29.60 1002 5 8 0.00 0.00
3:53 am 03:53 Cloudy with Haze 73 22.8 66 18.9 79 79 SSE 12 19 29.60 1003 6 10 0.00 0.00
4:53 am 04:53 Cloudy with Haze 73 22.8 66 18.9 79 79 S 14 22 29.60 1002 6 10 0.00 0.00
5:01 am 05:01 Cloudy with Haze 72 22.2 66 18.9 82 82 S 15 24 29.59 1002 6 10 0.00 0.00
5:49 am 05:49 Hazy 70 21 64 18 83 83 SSW 7 11 29.65 1004 6 10 0.00 0.00
5:53 am 05:53 Hazy 70 21.1 65 18.3 84 84 SSW 7 11 29.61 1003 6 10 0.00 0.00
6:53 am 06:53 Hazy 68 20 63 17.2 84 84 WSW 7 11 29.64 1004 6 10 0.00 0.00
7:53 am 07:53 Sunny with Mist and Fog 68 20 64 17.8 87 87 WSW 8 13 29.69 1005 3 5 0.00 0.00
8:53 am 08:53 Sunny 74 23.3 46 7.8 37 37 W 12 19 29.71 1006 10 16 0.00 0.00
9:53 am 09:53 Sunny 79 26.1 36 2.2 21 21 NNW 15 24 29.72 1007 10 16 0.00 0.00
10:53 am 10:53 Sunny 81 27.2 31 -0.6 16 16 WNW 17 28 29.73 1007 10 16 0.00 0.00
11:53 am 11:53 Sunny 81 27.2 28 -2.2 14 14 WNW 9 15 29.73 1007 10 16 0.00 0.00
12:53 pm 12:53 Sunny 84 28.9 26 -3.3 12 12 W 14 22 29.71 1006 10 16 0.00 0.00
1:53 pm 13:53 Sunny 86 30 27 -2.8 12 12 WSW 15 24 29.69 1005 10 16 0.00 0.00
2:53 pm 14:53 Sunny 87 30.6 26 -3.3 11 11 WSW 21 33 29.68 1005 10 16 0.00 0.00
3:53 pm 15:53 Sunny 87 30.6 25 -3.9 10 10 SW 12 19 29.66 1005 10 16 0.00 0.00
4:53 pm 16:53 Sunny 88 31.1 26 -3.3 10 10 SW 16 26 29.64 1004 10 16 0.00 0.00
5:53 pm 17:53 Sunny 88 31.1 23 -5 9 9 WSW 18 30 29.64 1004 10 16 0.00 0.00
6:53 pm 18:53 Sunny 87 30.6 25 -3.9 10 10 W 9 15 29.63 1004 10 16 0.00 0.00
7:19 pm 19:19 Sunny 85 29.4 16 -8.9 7 7 WNW 16 26 29.56 1001 10 16 0.00 0.00
7:53 pm 19:53 Sunny 83 28.3 16 -8.9 8 8 NW 15 24 29.65 1004 10 16 0.00 0.00
8:53 pm 20:53 Clear 77 25 17 -8.3 10 10 NNW 10 17 29.66 1004 10 16 0.00 0.00
9:53 pm 21:53 Clear 70 21.1 18 -7.8 14 14 N 9 15 29.67 1005 10 16 0.00 0.00
10:53 pm 22:53 Clear 67 19.4 18 -7.8 15 15 N 8 13 29.71 1006 10 16 0.00 0.00
11:53 pm 23:53 Clear 70 21.1 16 -8.9 12 12 VRB 3 6 29.72 1006 10 16 0.00 0.00

Powered by AerisWeather